STARLINK-32539, 62022

Orbit data source: Space-Track

STARLINK-32539, 62022 is a payload satellite owned by SpaceX/Seattle (US) in LEO that was launched on Mon, 18 Nov 2024 UTC via an FALCON 9 launch vehicle from the Air Force Western Test Range (AFWTR). Payloads include a variety of satellites, spacecraft, and rockets equipped with specific instruments for various scientific and technological missions. These include communications satellites like Starlink; space stations such as the ISS; scientific satellites like the Hubble; Earth observation satellites from companies like Planet Labs, Umbra, and HawkEye 360; GPS; miniature CubeSats for education and research; and military/defense satellites.

Loading next visibility...
STARLINK-32539 details
Identifier
62022, 2024-213Q
Orbit
LEO
Last TLE update13 hours ago
Origin
Flag of USSpaceX/Seattle (US)
ManufacturerSpaceX/Seattle
MissionOperational spacecraft
Bus & MotorSTARLINK V2M, Unknown motor
Mass730 kg wet, ~700 kg dry
Launch date (UTC)
2024-11-18 (2 weeks ago)
Launch vehicle
FALCON 9
Launch site
Air Force Western Test Range (AFWTR)
Object type
Payload
Rocket body
Debris
Shape & HBRUnknown
Radar Cross SectionLarge (>1 m²)

Expand to show TLE details & history

TLE from 13 hours ago
0 STARLINK-32539
1 62022U 24213Q   24336.91667824 -.00151190  18384-4 -44988-3 0  9998
2 62022  53.1602 166.5114 0000454  78.7729  72.0651 15.91317053  3007
Epoch: 2024-12-01T22:00Z
Definitive object data (Epoch: 2024-12-01T22:00:00.999Z)
Latitude23.00971°
Longitude-73.18357°
Altitude299.266 km
Speed7.732 km/s
True Right ascension21h 52m 16s
True Declination22° 52' 40"
Sunlit
Object was in daylight at TLE epoch
Visualization TLE readout
Latitude-44.72404°
Longitude75.025°
Altitude314.36 km
Speed7.719 km/s
Apparent Right ascension01h 31m 32s
Apparent Declination-84° 08' 20"
Sunlit
Object is in daylight
Visualization observer readout
Local Sidereal Time08:27:19
Azimuth187.555° SSW
Elevation-41.086°
Doppler factor1
Orbital elements
Apogee altitude299.162 km
Perigee altitude298.556 km
Semi-major axis6,676.996 km
Eccentricity0.0000454
Inclination53.1602°
RAAN166.5114°
Arg. of periapsis78.7729°
True anomaly72.07005°
Mean anomaly72.0651°
Eccentric anomaly72.06757°
Mean motion3.97806 °/min
BSTAR-0.00044988
Orbital period90.5 mins
Loading maneuver chart data...
Loading historical data...
Loading historical data...
Loading historical data...
Loading historical data...
Loading historical data...
Loading historical data...
Loading historical data...

STARLINK-32539 Visibility forecast

Observer location: undefined°, undefined

Span
Click to sort rows by Start time (UTC) header in descending order
Start Az.
Max El. time (UTC)
Max El. Az.
Max El.
End time (UTC)
End Az.
4 mins2024-12-02 15:38:43.815Z231.634° WSW2024-12-02 15:40:43.815Z252.806° W43.763°2024-12-02 15:42:43.815Z47.82° ENE
|